[Iaude] MPEC B49: 2024 AA6 [a=2.01,e=0.49,i=7.2,H=25.1]

mpec at marsden.cfa.harvard.edu mpec at marsden.cfa.harvard.edu
Fri Jan 19 16:00:58 EST 2024


M.P.E.C. 2024-B49                              Issued 2024 January 19, 20:59 UT

     The Minor Planet Electronic Circulars contain information on unusual
         minor planets, routine data on comets and natural satellites,
         and occasional editorial announcements.  They are published
    on behalf of Division F of the International Astronomical Union by the
          Minor Planet Center, Smithsonian Astrophysical Observatory,
                          Cambridge, MA 02138, U.S.A.
			  
             Prepared using the Tamkin Foundation Computer Network

                              MPC at CFA.HARVARD.EDU
            URL https://www.minorplanetcenter.net/    ISSN 1523-6714

                                    2024 AA6                                    


Observations:
     K24A06A  C2024 01 07.51380609 04 15.507+00 41 11.35         20.77GVEB049F51
     K24A06A  C2024 01 07.51651009 04 17.150+00 41 36.19         19.56GVEB049F51
     K24A06A  C2024 01 08.48095509 14 45.041+03 06 06.35               VEB049F51
     K24A06A*1C2024 01 11.35900109 41 27.481+09 18 58.39         19.99GVEB049G96
     K24A06A 1C2024 01 11.36416909 41 29.796+09 19 33.53         20.38GVEB049G96
     K24A06A 1C2024 01 11.36932509 41 32.100+09 20 09.42         20.41GVEB049G96
     K24A06A 1C2024 01 11.37448409 41 34.357+09 20 44.92         20.36GVEB049G96
     K24A06A KC2024 01 11.41741809 41 53.358+09 25 40.55         20.59GVEB049V06
     K24A06A KC2024 01 11.41820409 41 53.675+09 25 45.98         19.99GVEB049V06
     K24A06A KC2024 01 11.41899009 41 54.049+09 25 52.00         20.34GVEB049V06
     K24A06A KC2024 01 11.41977509 41 54.409+09 25 56.53         20.22GVEB049V06
     K24A06A 1C2024 01 19.41847010 28 54.696+20 20 21.52         21.15GVEB049G96
     K24A06A 1C2024 01 19.43101410 28 57.245+20 21 03.71         20.91GVEB049G96
     K24A06A 1C2024 01 19.43615610 28 58.310+20 21 21.10         20.87GVEB049G96
     K24A06A  C2024 01 19.43770010 28 58.696+20 21 27.14         20.97GVEB049V00
     K24A06A  C2024 01 19.44517910 29 00.226+20 21 52.45         21.27GVEB049V00
     K24A06A  C2024 01 19.45166410 29 01.550+20 22 13.69         21.19GVEB049V00
     K24A06A  C2024 01 19.45980410 29 03.217+20 22 40.98         21.12GVEB049V00
     K24A06A KC2024 01 19.46053210 29 03.282+20 22 42.49         20.87GVEB049I52
     K24A06A KC2024 01 19.46163510 29 03.541+20 22 46.20         21.79GVEB049I52
     K24A06A KC2024 01 19.46274010 29 03.728+20 22 50.48         20.89GVEB049I52

Observer details:
F51 Pan-STARRS 1, Haleakala.  Observers J. Herman, T. Lowe, P. Minguez, A.
    Schultz, I. Smith.  Measurers K. Chambers, T. de Boer, J. Fairlamb, H.
    Gao, M. Huber, C.-C. Lin, E. Magnier, Y. Ramanjooloo, R. Wainscoat, R.
    Weryk.  1.8-m Ritchey-Chretien + CCD.
G96 Mt. Lemmon Survey.  Observers J. K. Hogan, A. R. Gibbs.  Measurers T.
    Beuden, V. F. Carvajal, D. Fay, J. B. Fazekas, D. C. Fuls, A. R. Gibbs, A.
    D. Grauer, H. Groeller, J. K. Hogan, R. A. Kowalski, S. M. Larson, G. J.
    Leonard, D. Rankin, R. L. Seaman, F. C. Shelly, K. W. Wierzchos.  1.5-m
    reflector + 10K CCD.
I52 Steward Observatory, Mt. Lemmon Station.  Observer R. A. Kowalski.
    Measurers E. C. Beshore, D. Fay, J. B. Fazekas, D. C. Fuls, A. R. Gibbs,
    A. D. Grauer, H. Groeller, J. K. Hogan, R. A. Kowalski, S. M. Larson, G.
    J. Leonard, D. Rankin, R. L. Seaman, F. C. Shelly, K. W. Wierzchos.  1.0-m
    prime focus + CCD.
V00 Kitt Peak-Bok.  Observer R. A. Mastaler.  Measurers M. J. Brucker, C. E.
    Woodward, D. Fay, J. B. Fazekas, D. C. Fuls, A. R. Gibbs, H. Groeller, J.
    K. Hogan, R. A. Kowalski, S. M. Larson, C. Lejoly, G. J. Leonard, R. A.
    Mastaler, R. S. McMillan, D. Rankin, R. L. Seaman, A. Serrano, F. C.
    Shelly, K. W. Wierzchos.  2.25-m reflector + 4x4K mosaic CCD.
V06 Catalina Sky Survey-Kuiper.  Observer K. W. Wierzchos.  Measurers T.
    Beuden, V. F. Carvajal, D. Fay, J. B. Fazekas, D. C. Fuls, A. R. Gibbs, A.
    D. Grauer, H. Groeller, J. K. Hogan, R. A. Kowalski, S. M. Larson, G. J.
    Leonard, D. Rankin, R. L. Seaman, F. C. Shelly, K. W. Wierzchos.  1.55-m
    reflector + 1K CCD.

Orbital elements:
2024 AA6                                                 Earth MOID = 0.0452 AU
Epoch 2023 Sept. 13.0 TT = JDT 2460200.5                Veres                   
M 324.35189              (2000.0)            P               Q                  
n   0.34576336     Peri.  337.79926     -0.04150970     -0.99255663             
a   2.0104043      Node   114.42316     +0.93455360     -0.07910102             
e   0.4944088      Incl.    7.22369     +0.35339286     +0.09259786             
P   2.85           H   25.12          G   0.15           U   7                  
Residuals in seconds of arc
240107 F51  0.1+  0.2+    240111 V06  0.0   0.0     240119 V00  0.0   0.0
240107 F51  0.0   0.1-    240111 V06  0.5-  0.1+    240119 V00  0.0   0.2+
240108 F51  0.1-  0.2-    240111 V06  0.1-  0.7+    240119 V00  0.0   0.2-
240111 G96  0.0   0.3+    240111 V06  0.1+  0.1-    240119 V00  0.1-  0.0
240111 G96  0.2+  0.4-    240119 G96  0.3+  0.1-    240119 I52  0.2-  0.0
240111 G96  0.3+  0.1-    240119 G96  0.0   0.2-    240119 I52  0.2+  0.1+
240111 G96  0.2-  0.3-    240119 G96  0.1+  0.1-    240119 I52  0.3-  0.7+

Ephemeris:
2024 AA6                 a,e,i = 2.01, 0.49, 7                   q = 1.0164
Date    TT    R. A. (2000) Decl.     Delta      r    Elong.  Phase     V
2023 12 20    04 36 09.6 -37 04 20   0.07110 1.0183   117.1    59.3    21.5
...
2024 01 04    08 19 34.7 -09 12 31   0.05024 1.0233   141.9    36.3    20.2
...
2024 01 12    09 46 32.2 +10 31 21   0.06611 1.0387   145.5    32.4    20.7
...
2024 01 18    10 22 48.9 +18 55 43   0.08563 1.0555   145.6    31.8    21.3
2024 01 19    10 27 11.5 +19 56 40   0.08924 1.0588   145.7    31.6    21.3
2024 01 20    10 31 11.3 +20 52 36   0.09294 1.0621   145.8    31.4    21.4
...
2024 01 26    10 48 41.0 +25 06 54   0.1165  1.0845   147.4    29.3    21.9
...
2024 02 03    10 59 58.0 +28 26 01   0.1512  1.1198   150.7    25.5    22.4
...
2024 02 18    11 02 23.3 +30 50 56   0.2269  1.1998   156.6    19.1    23.3

M. P. C. Staff               (C) Copyright 2024 MPC           M.P.E.C. 2024-B49





More information about the Iaude mailing list